Damascus, Syria

2:48 PM EEST on April 19, 2018 (GMT +0300)
Damascus International

Weather History for OSDI - January, 2013

Change the Weather History Date:

Monday, January 21, 2013

  Actual Average Record
Temperature  
Mean Temperature 48 °F -  
Max Temperature 60 °F 58 °F 69 °F (2015)
Min Temperature 35 °F 34 °F 17 °F (2012)
Degree Days  
Heating Degree Days 18    
Moisture  
Dew Point 39 °F    
Average Humidity 75    
Maximum Humidity 100    
Minimum Humidity 39    
Precipitation  
Precipitation 0.00 in 0.03 in - ()
Sea Level Pressure  
Sea Level Pressure 30.18 in    
Wind  
Wind Speed 1 mph ()    
Max Wind Speed 2 mph    
Max Gust Speed -    
Visibility 2.8 miles    
Events Fog    
Averages and records for this station are not official NWS values.
T = Trace of Precipitation, MM = Missing Value Source: Averaged Metar Reports

Daily Weather History Graph

Daily Weather History Graph

Search for Another Location

Airport or City:

Astronomy

Jan. 21, 2013 Rise Set
Actual Time 6:36 AM EET 4:54 PM EET
Civil Twilight 6:09 AM EET 5:21 PM EET
Nautical Twilight 5:39 AM EET 5:51 PM EET
Astronomical Twilight 5:09 AM EET 6:21 PM EET
Moon 12:21 PM EET (1/21) 1:45 AM EET (1/21)
Length of Visible Light 11h 12m
Length of Day
10h 18m
Waxing Gibbous, 72% of the Moon is Illuminated
Jan 21
Waxing Gibbous
Jan 27
Full
Feb 3
Last Quarter
Feb 10
New
Feb 17
First Quarter

Hourly Weather History & Observations

Time (EET) Temp. Dew Point Humidity Pressure Visibility Wind Dir Wind Speed Gust Speed Precip Events Conditions
12:00 AM 44.6 °F 41.0 °F 87% 30.21 in - Calm Calm - N/A   Clear
1:00 AM 42.8 °F 39.2 °F 87% 30.21 in - Calm Calm - N/A   Clear
2:00 AM 41 °F 37 °F 80% 30.17 in 6 mi NE 2.2 mph - -  
2:00 AM 41.0 °F 37.4 °F 87% 30.18 in - NE 2.3 mph - N/A   Clear
3:00 AM 41.0 °F 37.4 °F 87% 30.18 in - NE 2.3 mph - N/A   Clear
4:00 AM 42.8 °F 37.4 °F 81% 30.18 in - East 2.3 mph - N/A   Clear
5:00 AM 37.4 °F 33.8 °F 87% 30.21 in 0.1 mi Calm Calm - N/A Fog Fog
6:00 AM 39.2 °F 37.4 °F 93% 30.18 in 0.1 mi Calm Calm - N/A Fog Fog
7:00 AM 37.4 °F 35.6 °F 93% 30.21 in 0.1 mi Calm Calm - N/A Fog Fog
8:00 AM 36 °F 35 °F 95% 30.25 in 0 mi Calm Calm - - Fog Partial Fog
8:00 AM 35.6 °F 35.6 °F 100% 30.24 in 0.1 mi Calm Calm - N/A Fog Fog
9:00 AM 39.2 °F 39.2 °F 100% 30.24 in 0.4 mi Calm Calm - N/A Fog Fog
10:00 AM 46.4 °F 42.8 °F 87% 30.24 in - Calm Calm - N/A   Clear
11:00 AM 51.8 °F 44.6 °F 76% 30.21 in - North 2.3 mph - N/A   Clear
12:00 PM 55.4 °F 44.6 °F 67% 30.18 in - NNE 2.3 mph - N/A   Clear
1:00 PM 59.0 °F 44.6 °F 59% 30.15 in - Calm Calm - N/A   Clear
2:00 PM 60 °F 42 °F 39% 30.13 in 9 mi Calm Calm - -  
2:00 PM 60.8 °F 37.4 °F 42% 30.15 in - Calm Calm - N/A   Clear
3:00 PM 60.8 °F 41.0 °F 48% 30.15 in - Calm Calm - N/A   Clear
4:00 PM 60.8 °F 42.8 °F 52% 30.15 in - Calm Calm - N/A   Clear
5:00 PM 55.4 °F 41.0 °F 58% 30.15 in - Calm Calm - N/A   Clear
6:00 PM 53.6 °F 41.0 °F 62% 30.15 in - Calm Calm - N/A   Clear
7:00 PM 50.0 °F 37.4 °F 62% 30.15 in - Calm Calm - N/A   Clear
8:00 PM 49 °F 40 °F 62% 30.18 in 9 mi Calm Calm - -  
8:00 PM 48.2 °F 39.2 °F 71% 30.18 in - Calm Calm - N/A   Clear
9:00 PM 44.6 °F 37.4 °F 76% 30.18 in - Calm Calm - N/A   Clear
10:00 PM 44.6 °F 37.4 °F 76% 30.18 in - Calm Calm - N/A   Clear
11:00 PM 41.0 °F 37.4 °F 87% 30.18 in - Calm Calm - N/A   Clear